Location: *
(27.2500°S, 108.1200°E)
Time: 13:56:40
(UTC+00:00)

Daily predictions for brighter satellites

Satellite Brightness Start Highest point End
(mag) Time Altitude Azimuth Time Altitude Azimuth Time Altitude Azimuth
Atlas 2A Centaur Rocket 3.5 12:01:50 10° W 12:02:45 24° W 12:02:45 24° W
Cosmos 1470 Rocket 4.4 12:00:10 10° NNW 12:04:31 51° W 12:06:06 35° SSW
Meteor 1-20 Rocket 4.5 12:07:23 10° NNW 12:12:59 68° W 12:15:09 39° SSW
Delta 142 4.1 12:08:23 10° WNW 12:12:54 76° NW 12:12:54 76° NW
Cosmos 1802 Rocket 4.3 12:08:53 10° NNW 12:15:15 67° W 12:20:34 16° S
Longmarch 3A Rocket 2.9 12:10:42 10° W 12:22:13 69° WNW 12:22:13 69° WNW
Cosmos 1725 Rocket 4.0 12:19:06 10° N 12:24:55 78° NW 12:24:55 78° NW
ATLAS 5 CENTAUR R/B 4.5 12:55:30 10° WNW 13:01:06 24° SW 13:02:50 22° SSW
SL-16 R/B 4.0 12:58:09 10° NW 13:01:05 27° WNW 13:01:05 27° WNW
CZ-3A R/B 4.2 13:23:15 10° W 13:36:36 44° WNW 13:36:36 44° WNW
ATLAS 3B R/B 4.1 20:11:22 35° ESE 20:11:22 35° ESE 20:16:05 10° SE
CZ-3 Stage 3 4.3 20:15:11 63° SE 20:15:11 63° SE 20:44:49 10° E
CZ-3 Stage 3 4.3 20:15:12 63° SE 20:15:12 63° SE 20:44:49 10° E
Cosmos 2333 Rocket 4.2 20:22:41 23° ENE 20:22:41 23° ENE 20:25:08 10° NE
Cosmos 2344 4.2 20:20:52 80° ENE 20:20:52 80° ENE 20:29:11 10° NNE
Cosmos 2227 Rocket 3.7 20:43:20 30° SE 20:43:20 30° SE 20:46:28 10° SE
Mugunghwa Rocket 4.4 20:52:59 67° NNE 20:52:59 67° NNE 21:00:05 10° E
Cosmos 2285 Rocket 4.2 20:56:48 10° N 21:03:00 66° ENE 21:09:17 10° SSE
ALOS 4.2 21:03:34 10° NNE 21:05:07 21° NNE 21:05:07 21° NNE
Cosmos 2219 Rocket 2.4 21:15:33 58° N 21:15:33 58° N 21:20:02 10° NNE
Meteor 2-2 Rocket 4.3 21:12:01 10° N 21:17:58 84° E 21:23:53 10° S
USA 32 4.4 21:18:44 24° SSE 21:21:51 62° E 21:27:01 10° NNE
Cosmos 1821 Rocket 4.0 21:18:34 20° S 21:23:15 82° E 21:29:38 10° N
Okean O Rocket 3.7 21:21:52 10° NE 21:25:26 25° ESE 21:29:00 10° SSE
STARLINK-1052 4.4 21:26:40 47° NE 21:26:40 47° NE 21:29:41 10° NE
OAO 2 Rocket 4.3 21:26:21 34° SSE 21:26:21 34° SSE 21:30:29 10° ESE
FENGYUN 3A 4.1 21:21:26 10° N 21:25:27 47° NNW 21:25:27 47° NNW
STARLINK-1144 4.2 21:27:31 56° ENE 21:27:31 56° ENE 21:31:32 10° SE
NOSS 3-3 (A) 3.7 21:28:26 55° SSW 21:29:48 88° ESE 21:35:25 10° NNE
NOSS 3-3 (C) 3.7 21:28:27 54° SSW 21:29:54 87° ESE 21:35:30 10° NNE
COSMOS 2428 2.7 21:31:19 59° WNW 21:31:19 59° WNW 21:36:40 10° N
STARLINK-1103 3.9 21:32:18 64° NE 21:32:22 64° NE 21:36:32 10° SE
NOSS 0 Rocket 4.1 21:29:45 27° S 21:33:16 74° ESE 21:39:26 10° NNE
STARLINK-1033 4.1 21:36:15 53° N 21:36:15 53° N 21:39:35 10° NNE
PSLV R/B 4.5 21:32:12 10° N 21:34:58 46° N 21:34:58 46° N
STARLINK-1101 3.7 21:37:05 70° NNE 21:37:19 73° NE 21:41:31 10° SE
Cosmos 1633 3.5 21:39:14 40° NNE 21:39:14 40° NNE 21:41:37 10° N
Hubble Space Telescope 3.4 21:37:18 10° N 21:39:49 16° NNE 21:42:25 10° ENE
STARLINK-1031 4.0 21:41:00 53° NNW 21:41:00 53° NNW 21:44:30 10° NNE
Cosmos 2112 Rocket 4.0 21:39:03 27° S 21:41:56 77° ESE 21:47:06 10° NNE
STARLINK-1102 3.6 21:41:53 70° NNW 21:42:19 83° NE 21:46:32 10° SE
PAYLOAD B 4.4 21:37:24 10° NNE 21:42:59 75° ESE 21:48:35 10° S
Atlas Centaur 2 1.4 21:42:40 71° WNW 21:43:05 80° NNW 21:47:10 10° ENE
Cosmos 1934 Rocket 4.2 21:37:51 10° S 21:44:13 70° E 21:50:24 10° NNE
CZ-4B DEB 4.1 21:39:20 10° NNE 21:44:50 88° WNW 21:49:31 15° SSW
STARLINK-1024 4.0 21:45:48 49° NNW 21:45:48 49° NNW 21:49:25 10° NNE
H-2A R/B 4.3 21:42:13 10° NE 21:45:36 34° ESE 21:49:00 10° S
Meteor 2-3 Rocket 4.0 21:46:06 44° W 21:46:06 44° W 21:51:24 10° NNW
Cosmos 1500 Rocket 3.4 21:45:36 57° SSW 21:46:25 75° W 21:50:46 10° N
SL-24 R/B 4.3 21:42:59 10° SSE 21:47:15 70° ENE 21:51:38 10° N
STARLINK-1111 3.5 21:46:40 64° NW 21:47:17 87° SW 21:51:29 10° SE
Cosmos 2297 Rocket 3.4 21:51:49 24° SSW 21:51:49 24° SSW 21:54:36 10° S
STARLINK-1035 4.1 21:50:36 44° NW 21:50:36 44° NW 21:54:19 10° NNE
Cosmos 2237 Rocket 2.4 21:47:31 15° SSW 21:52:16 71° ESE 21:57:52 10° NNE
STARLINK-1073 3.5 21:51:28 56° WNW 21:52:16 77° SW 21:56:28 10° SE
Cosmos 2082 3.5 21:47:18 10° NNW 21:52:53 69° WSW 21:58:31 10° SSE
Lacrosse 5 rocket 2.0 21:53:11 41° WNW 21:53:11 41° WNW 21:57:15 10° N
Cosmos 1340 3.3 21:54:43 39° NW 21:54:43 39° NW 21:57:24 10° N
STARLINK-1032 4.2 21:55:22 39° NW 21:55:22 39° NW 21:59:11 10° NNE
Cosmos 1805 Rocket 4.2 21:51:49 10° S 21:56:17 58° E 22:00:40 10° NNE
STARLINK-1121 3.5 21:56:14 48° WNW 21:57:13 67° SW 22:01:24 10° SE
Cosmos 1818 4.0 21:56:49 37° W 21:57:41 40° WNW 22:02:42 10° N
ATLAS 3B R/B 3.5 21:58:46 30° WSW 21:59:55 31° SW 22:06:23 10° S
STARLINK-1011 4.3 22:00:09 35° WNW 22:00:15 35° NW 22:04:02 10° NNE
ATLAS 5 CENTAUR R/B 1.9 21:59:46 41° W 22:00:22 44° WNW 22:04:22 10° N
STARLINK-1106 3.6 22:01:02 41° WNW 22:02:12 59° SW 22:06:21 10° SSE
STARLINK-1037 4.5 22:02:43 32° WNW 22:02:52 32° NW 22:06:34 10° N
Cosmos 2333 Rocket 3.4 22:04:46 22° WNW 22:04:46 22° WNW 22:08:15 10° NNW
Cosmos 158 Rocket 4.0 22:01:20 21° SSW 22:04:55 61° WNW 22:10:09 10° N
SL-16 R/B 4.0 22:00:19 10° S 22:05:12 29° ESE 22:10:03 10° NE
Cosmos 2263 Rocket 4.5 22:01:13 10° NNE 22:05:45 26° ENE 22:10:18 10° SE
STARLINK-1112 3.7 22:05:50 35° WNW 22:07:11 52° SW 22:11:18 10° SSE
Cosmos 372 Rocket 4.0 22:06:53 10° NNW 22:12:00 57° WSW 22:17:12 10° S
STARLINK-1128 3.9 22:10:38 31° W 22:12:12 46° SW 22:16:14 10° SSE
Chandra Rocket (1) 4.1 22:07:15 10° NW 22:14:09 29° N 22:17:15 10° ENE
PSLV R/B 4.3 22:10:01 10° SSE 22:14:09 68° E 22:18:12 10° N
STARLINK-1042 4.5 22:13:53 16° SSW 22:16:56 47° SE 22:20:56 10° ENE
STARLINK-1113 4.0 22:15:25 27° W 22:17:10 41° SW 22:21:09 10° SSE
Cosmos 1606 3.2 22:14:38 10° N 22:18:24 62° E 22:22:15 10° SSE
SMAP 3.4 22:16:22 10° NNE 22:21:00 70° ESE 22:25:41 10° S
GOES 2 Rocket 4.0 22:16:40 14° WNW 22:21:04 67° NNE 22:27:50 10° E
STARLINK-1056 4.3 22:18:40 16° SSW 22:21:55 53° SE 22:25:59 10° NE
STARLINK-1119 4.2 22:20:11 23° W 22:22:10 36° SW 22:26:04 10° SSE
Cosmos 1680 Rocket 4.3 22:21:06 20° SW 22:23:41 30° W 22:28:12 10° NNW
Cosmos 2227 Rocket 3.5 22:25:20 18° WSW 22:25:20 18° WSW 22:29:08 10° SSW
STARLINK-1054 4.1 22:23:26 14° SSW 22:26:53 60° SE 22:30:59 10° NE
STARLINK-1114 4.4 22:25:00 20° W 22:27:10 33° SW 22:30:59 10° SSE
CZ-4B R/B 3.3 22:24:27 10° N 22:29:40 53° W 22:34:53 10° SSW
BREEZE-M DEB (TANK) 3.1 22:31:18 17° SW 22:31:18 17° SW 22:32:59 10° S
STARLINK-1062 3.9 22:28:14 13° SW 22:31:52 68° SE 22:36:00 10° NE
Cosmos 2150 Rocket 4.2 22:27:24 10° NNW 22:32:22 48° WSW 22:37:29 10° S
STARLINK-67 3.2 22:33:09 22° SSW 22:33:09 22° SSW 22:34:22 10° SSE
OAO 1 Rocket 4.5 22:28:52 18° WSW 22:32:55 80° NNW 22:38:15 10° ENE
TIMED 4.5 22:28:31 10° SSW 22:32:57 83° WNW 22:37:18 10° NNE
Cosmos 1346 Rocket 4.0 22:32:40 16° SW 22:34:41 23° W 22:37:55 10° NW
Cosmos 1933 3.3 22:31:11 10° N 22:35:12 87° E 22:39:17 10° S
SEDSat Delta rocket 3.0 22:32:29 10° WNW 22:36:38 70° NNE 22:40:42 10° ESE
AQUARIUS 4.1 22:32:12 10° N 22:36:43 85° W 22:41:17 10° SSW
STARLINK-1053 3.7 22:33:01 12° SW 22:36:51 77° SE 22:41:00 10° NE
Intelsat 5-3 Rocket 3.6 22:35:16 10° NW 22:38:38 24° N 22:40:48 10° ENE
USA 267 3.6 22:34:46 10° NE 22:41:13 64° SE 22:47:43 10° SSW
STARLINK-1061 3.6 22:37:48 11° SW 22:41:50 87° ESE 22:45:59 10° NE
STARLINK-1065 3.6 22:40:38 11° SW 22:44:44 86° NW 22:48:53 10° NE
SL-8 R/B 3.8 22:41:29 10° NW 22:46:19 87° NE 22:51:11 10° SE
STARLINK-1067 3.6 22:42:34 10° SW 22:46:46 82° NW 22:50:55 10° NE
Cosmos 1689 Rocket 3.9 22:47:24 12° SW 22:48:15 13° WSW 22:49:40 10° WNW
OAO 3 Rocket 3.5 22:44:31 12° WSW 22:48:43 56° NNW 22:53:16 10° NE
Mugunghwa Rocket 4.3 22:41:28 10° W 22:48:57 87° N 22:55:41 10° E
Cosmos 1515 Rocket 3.7 22:44:52 10° N 22:49:12 82° E 22:53:36 10° S
CORIOLIS 4.2 22:43:50 10° N 22:49:13 74° WNW 22:54:42 10° SSW
STARLINK-1058 3.6 22:47:34 10° SW 22:51:45 72° NW 22:55:53 10° NNE
Sich 1 3.6 22:47:44 10° SSW 22:51:53 38° W 22:55:59 10° NNW
YAOGAN 6 2.7 22:52:30 10° N 22:56:03 56° W 22:59:42 10° SSW
STARLINK-1043 3.7 22:52:34 10° SW 22:56:43 63° NW 23:00:49 10° NNE
SKYMED 2 3.6 22:55:01 10° S 22:59:22 68° WSW 23:03:41 10° NNW
Okean O Rocket 3.0 22:58:32 10° NW 23:01:39 19° W 23:04:48 10° SW
Lacrosse 4 Rocket 2.0 22:58:29 10° NW 23:02:09 33° WSW 23:05:51 10° S
Delta 2 Rocket 4.3 22:58:54 10° WSW 23:04:40 75° SSE 23:10:19 10° ENE
ADEOS Rocket 3.3 22:57:40 10° S 23:04:53 76° WSW 23:11:18 10° NNW
Cosmos 1459 Rocket 4.4 23:01:47 10° S 23:08:15 77° E 23:14:34 10° N
